This demonstration page uses our WeatherBlox Daily Observations layout. Learn more.

Left ArrowRight Arrow

39.92423, -83.80882

Hourly Observations for January 28, 2021

Temp ( °F °C ) Dew Point ( °F °C ) Humidity (%) Winds ( mph kmh ) Pressure ( in mb ) Visibility ( mi km ) Precip ( " mm )
12:56 am 00:56 Mostly Clear 22 -5.6 17 -8.3 82 82 NNW 10 17 30.39 1029 10 16.0934 0 0
1:56 am 01:56 Clear 21 -6.1 15 -9.4 78 78 NNW 10 17 30.41 1030 10 16.0934 0 0
2:56 am 02:56 Clear 19 -7.2 14 -10 81 81 N 8 13 30.43 1031 10 16.0934 0 0
3:56 am 03:56 Clear 18 -7.8 15 -9.4 88 88 NNW 8 13 30.45 1031 10 16.0934 0 0
4:56 am 04:56 Cloudy 21 -6.1 15 -9.4 78 78 N 10 17 30.47 1032 10 16.0934 0 0
5:56 am 05:56 Cloudy 20 -6.7 16 -8.9 85 85 N 8 13 30.49 1032 10 16.0934 0 0
6:56 am 06:56 Cloudy with Light Snow 21 -6.1 17 -8.3 85 85 N 10 17 30.51 1033 9 14.48406 0.001 0.001
7:56 am 07:56 Cloudy 22 -5.6 15 -9.4 75 75 NW 13 20 30.53 1034 9 14.48406 0.001 0.001
8:52 am 08:52 Cloudy with Light Snow 21 -6 18 -8 86 86 N 10 17 30.58 1036 8 12.87472 0.001 0.001
8:56 am 08:56 Cloudy with Light Snow 22 -5.6 18 -7.8 85 85 N 8 13 30.55 1035 7 11.26538 0.001 0.001
9:43 am 09:43 Cloudy with Light Snow 21 -6 18 -8 86 86 NNW 12 19 30.6 1036 8 12.87472 0.001 0.001
9:56 am 09:56 Cloudy with Light Snow 23 -5 17 -8.3 78 78 NNW 8 13 30.58 1036 9 14.48406 0.001 0.001
10:03 am 10:03 Cloudy with Light Snow 23 -5 18 -8 80 80 NNW 10 17 30.61 1036 9 14.48406 0.001 0.001
10:17 am 10:17 Cloudy with Light Snow 23 -5 16 -9 74 74 N 10 17 30.6 1036 9 14.48406 0.001 0.001
10:56 am 10:56 Cloudy 24 -4.4 14 -10 65 65 NW 9 15 30.59 1036 10 16.0934 0.001 0.001
11:52 am 11:52 Cloudy with Light Snow 25 -4 18 -8 74 74 NW 12 19 30.61 1037 9 14.48406 0.001 0.001
11:56 am 11:56 Cloudy with Light Snow 24 -4.4 16 -8.9 71 71 WNW 12 19 30.59 1036 9 14.48406 0.001 0.001
12:07 pm 12:07 Cloudy with Light Snow 25 -4 16 -9 69 69 WNW 13 20 30.61 1037 9 14.48406 0.001 0.001
12:49 pm 12:49 Cloudy with Light Snow 25 -4 16 -9 69 69 NW 12 19 30.61 1037 9 14.48406 0.001 0.001
12:56 pm 12:56 Cloudy with Light Snow 24 -4.4 16 -8.9 71 71 NW 15 24 30.59 1036 9 14.48406 0.001 0.001
1:13 pm 13:13 Cloudy with Light Snow 25 -4 16 -9 69 69 NNW 15 24 30.6 1036 9 14.48406 0.001 0.001
1:23 pm 13:23 Cloudy with Light Snow 25 -4 16 -9 69 69 NNW 16 26 30.6 1036 9 14.48406 0.001 0.001
1:56 pm 13:56 Cloudy 25 -3.9 14 -10 63 63 NNW 14 22 30.57 1035 10 16.0934 0.001 0.001
2:56 pm 14:56 Cloudy 26 -3.3 14 -10 60 60 NW 12 19 30.58 1035 10 16.0934 0 0
3:56 pm 15:56 Cloudy 26 -3.3 15 -9.4 63 63 NNW 14 22 30.57 1035 10 16.0934 0 0
4:56 pm 16:56 Cloudy 25 -3.9 15 -9.4 66 66 NW 10 17 30.57 1035 10 16.0934 0 0
5:56 pm 17:56 Cloudy with Light Snow 24 -4.4 16 -8.9 71 71 NW 10 17 30.57 1035 10 16.0934 0.001 0.001
6:56 pm 18:56 Cloudy 24 -4.4 15 -9.4 68 68 NW 9 15 30.57 1035 10 16.0934 0.001 0.001
7:56 pm 19:56 Cloudy 24 -4.4 16 -8.9 71 71 NW 6 9 30.56 1035 10 16.0934 0 0
8:56 pm 20:56 Cloudy 23 -5 16 -8.9 74 74 NW 3 6 30.55 1035 10 16.0934 0 0
9:56 pm 21:56 Cloudy 23 -5 17 -8.3 78 78 NNW 3 6 30.55 1034 10 16.0934 0 0
10:56 pm 22:56 Cloudy 23 -5 17 -8.3 78 78 NNW 5 7 30.53 1034 10 16.0934 0 0
11:56 pm 23:56 Cloudy 22 -5.6 15 -9.4 75 75 NNW 6 9 30.54 1034 10 16.0934 0 0

Powered by AerisWeather